Location: Astronomy Club of Akron Observatory
(40.9700°N, 81.5606°W)
Time: 02:43:03
(UTC-04:00)

Hubble Space Telescope - Pass Details

Date: 21 July 2018
Orbit: 537 x 541 km, 28.5° (Epoch: 24 September)

Event Time Altitude Azimuth Distance (km) Brightness Sun altitude
Exits shadow 05:02:39 13° 196° (SSW) 1,612 2.7 -11.6°
Maximum altitude 05:03:12 13° 187° (S) 1,595 2.7 -11.6°
Drops below altitude 10° 05:05:07 10° 159° (SSE) 1,778 3.2 -11.3°
Sets 05:08:26 0° 131° (SE) 2,666 4.4 -10.8°
